ATLAS 5 CENTAUR DEB, 44106

Orbit data source: Space-Track

ATLAS 5 CENTAUR DEB, 44106 is space debris in HEO originally from a launch on Wed, 17 Sep 2014 UTC launched from the Air Force Eastern Test Range (AFETR). Debris objects in space refer to the collection of defunct objects orbiting the Earth. Examples of debris include non-operational satellites, rocket bodies, and fragments generated from explosions, collisions, or faulty payload assembly.

Loading next visibility...
Identifier
44106, 2014-055CB
Orbit
HEO
Country
Flag of USUS
Related business
Flag of USUnited Launch Alliance/Lockheed Martin (US)
Manufacturer
Unknown
Mission
Spacecraft
Bus & Motor
Unknown
Mass
Unknown
Launch date (UTC)
2014-09-17 (11 years ago)
Launch vehicle
Unknown
Launch site
Air Force Eastern Test Range (AFETR)
Object type
Payload
Rocket body
Debris
Shape & HBR
Unknown shape, 1.1 m
Radar Cross Section
Small (<0.1 m²)

Expand to show TLE details & history
Last TLE update: 2 days ago

TLE from 2 days ago
0 ATLAS 5 CENTAUR DEB
1 44106U 14055CB  26070.80993463 -.00000081  00000-0  00000+0 0  9996
2 44106  19.9349 152.1053 4843270 149.3444 251.0435  1.84990890 47948
Epoch: 2026-03-11T19:26Z
TLE epoch observation values (Epoch: 2026-03-11T19:26:18.352Z)
Latitude
0.00002°
Longitude
51.05134°
Altitude
30,421.449 km
Speed
2.728 km/s
True Right ascension
10h 08m 23s
True Declination
0° 00' 00"
Sunlit
Object was in daylight at epoch
Visualization orbit readout
Latitude
Unknown
Longitude
Unknown
Altitude
Unknown
Speed
Unknown
Apparent Right ascension
Unknown
Apparent Declination
Unknown
Sunlit
N/A
Visualization observer readout
Local Sidereal Time
14:19:38
Azimuth
Unknown
Elevation
Unknown
Doppler factor
Unknown
Orbital elements
Apogee altitude
35,231.585 km
Perigee altitude
8,077.579 km
Semi-major axis
28,032.719 km
Eccentricity
0.48433
Inclination
19.9349°
RAAN
152.1053°
Arg. of periapsis
149.3444°
True anomaly
210.6276°
Mean anomaly
251.0435°
Eccentric anomaly
229.83676°
Mean motion
0.46243 °/min
Orbital period
778.5 mins
BSTAR
0
Loading maneuver chart data...
Computing Atmospheric mass density...

Documentation

Showing up to 5 results
|